Dewpoint
9 9 9 10 9 9 9 8 8 8 6 7 7 7 6 5 5 4 4 5 5 5 5 5 4 5 4 5 4 4 4 4 4 3 -1 -8 -11 -12
9 9 9 9 10 9 9 9 8 8 8 8 8 7 7 5 5 5 5 5 5 5 5 5 5 4 4 4 4 3 4 4 4 3 2 -2 -6 -10
10 9 9 9 9 9 9 9 9 9 8 8 8 6 7 6 5 5 5 5 5 5 5 5 5 5 5 5 4 4 4 3 3 3 3 1 -4 -8
9 9 8 9 8 9 9 9 9 8 8 7 8 7 5 5 6 5 5 5 5 5 5 5 5 5 5 5 5 5 4 4 3 3 2 2 -2 -6
9 9 8 9 9 8 8 8 8 7 7 7 7 6 6 6 6 6 5 6 6 6 5 5 5 5 5 4 4 5 4 4 4 3 2 2 -0 -5
9 9 9 9 8 9 8 8 8 8 7 8 7 7 7 7 7 6 5 5 5 5 4 4 5 4 5 5 4 3 3 2 3 3 3 2 1 -5
8 7 7 8 8 7 7 7 7 6 6 6 6 7 7 6 6 5 5 5 5 5 5 5 3 4 3 4 4 4 3 3 3 3 3 2 -0 -3
7 7 7 7 7 7 7 6 6 6 6 6 7 6 6 5 5 4 3 3 4 3 4 4 4 4 4 4 4 4 4 3 3 3 2 1 -1 -4
7 7 6 7 6 6 6 6 6 6 7 6 6 6 5 4 2 2 2 3 4 4 4 5 5 4 4 4 4 4 4 4 4 4 2 1 -1 -3
6 6 6 6 6 6 6 7 6 6 6 6 5 5 4 2 4 4 5 5 5 5 4 5 4 3 3 3 4 4 4 4 4 4 3 0 -1 -1
5 5 6 5 6 5 6 6 6 5 6 5 5 5 5 4 4 4 5 5 5 4 4 4 4 4 3 3 4 4 4 4 4 4 2 0 -1 -0
4 5 5 5 5 5 5 4 4 5 4 4 5 4 4 3 3 4 4 4 4 4 4 4 4 4 3 4 3 3 4 4 4 2 1 -1 -1 -2
3 3 3 3 4 4 4 4 4 4 5 5 4 4 3 3 3 3 4 4 4 4 4 3 3 3 3 2 2 2 2 2 2 1 -1 -2 -2 -2
-1 0 1 2 2 3 3 4 4 4 4 4 4 4 3 3 4 3 3 3 3 3 3 3 2 2 2 1 1 1 1 1 1 1 -1 -2 -2 -3
-2 -0 -0 0 2 2 3 3 3 3 3 4 4 4 3 4 3 3 2 2 2 2 2 2 1 1 0 0 0 0 0 -0 -0 -0 -1 -2 -3 -3
-2 -1 -1 -0 0 1 1 2 3 3 3 3 3 3 3 3 3 3 1 1 2 1 1 1 0 -0 -1 -1 -1 -1 -2 -2 -1 -2 -3 -3 -4 -4
-5 -3 -2 -2 0 0 2 2 2 2 2 3 3 3 3 3 3 2 2 2 1 1 1 0 -0 -1 -1 -2 -3 -3 -3 -3 -3 -4 -4 -4 -4 -5
-4 -3 -3 -2 -1 1 1 0 0 1 2 2 2 2 2 2 2 2 2 2 2 1 0 -1 -1 -2 -3 -3 -4 -4 -4 -4 -5 -4 -4 -4 -5 -5
-4 -4 -3 -2 -1 -1 0 0 0 0 1 1 1 0 1 1 1 1 0 0 -0 -1 -1 -2 -2 -3 -4 -4 -4 -4 -5 -5 -5 -5 -6 -9 -15 -20
-4 -4 -3 -2 -1 -1 -1 -1 -0 -0 -0 -1 -1 -1 -1 -1 -0 -1 -1 -1 -2 -2 -3 -3 -4 -4 -5 -5 -5 -5 -6 -7 -11 -16 -20 -20 -21 -21
-4 -4 -4 -3 -2 -2 -2 -2 -2 -1 -2 -2 -2 -2 -2 -2 -2 -2 -3 -3 -4 -4 -4 -5 -5 -5 -5 -6 -6 -7 -12 -17 -19 -19 -20 -19 -19 -20
-4 -4 -4 -4 -4 -3 -3 -2 -3 -3 -3 -3 -3 -3 -3 -3 -4 -4 -4 -4 -4 -5 -5 -5 -6 -6 -6 -7 -9 -15 -18 -19 -19 -19 -19 -18 -18 -17
-4 -4 -4 -4 -5 -4 -4 -4 -4 -4 -4 -4 -4 -4 -4 -4 -5 -5 -5 -5 -5 -5 -5 -6 -6 -7 -7 -12 -17 -18 -19 -19 -19 -18 -18 -17 -17 -17
Wind_Speed
50 50 52 50 51 54 46 34 23 23 26 26 28 19 21 24 23 23 24 24 25 26 25 23 23 23 22 24 24 26 27 27 26 25 24 23 23 21
46 47 47 46 45 48 50 41 32 33 26 24 25 20 16 17 19 23 24 25 26 26 28 29 27 27 28 29 29 28 30 32 29 28 29 27 26 24
44 44 44 46 44 39 43 45 36 34 33 29 23 21 20 20 19 19 21 23 24 24 26 26 28 29 30 32 31 32 33 34 33 31 32 31 29 28
44 42 43 43 42 36 39 43 39 36 33 33 27 23 23 21 22 22 22 23 23 25 25 27 28 29 30 32 33 33 34 36 35 33 33 33 32 31
43 41 39 37 34 33 33 30 29 27 30 33 24 24 23 25 24 24 23 25 28 28 28 30 30 31 31 31 34 35 35 36 38 37 34 36 35 34
40 37 36 33 32 34 31 32 30 29 28 27 26 27 25 26 26 24 24 25 26 26 26 27 29 30 32 32 32 35 35 37 37 39 39 38 38 36
35 35 30 29 28 27 28 28 28 28 28 28 29 27 27 27 27 25 25 25 28 30 33 32 32 32 35 36 36 37 35 36 36 39 40 40 40 37
32 29 27 24 23 24 25 24 24 26 28 27 28 28 26 25 24 25 25 29 32 33 35 33 32 34 34 34 35 34 34 35 37 38 39 40 40 38
29 27 26 25 24 24 25 25 25 23 25 25 27 29 27 25 25 28 30 32 33 29 32 35 33 37 33 33 32 32 35 36 40 39 38 39 41 42
29 27 25 24 23 22 22 24 24 26 30 30 29 27 25 28 29 30 27 25 28 33 35 40 39 38 34 36 35 34 33 35 35 37 38 38 41 42
25 24 23 27 28 24 22 24 27 28 26 26 26 26 26 26 27 28 33 33 33 35 31 35 38 38 38 38 35 38 35 34 33 33 35 37 38 38
21 23 22 22 22 24 26 26 28 28 26 27 28 28 26 28 27 27 28 31 31 34 32 33 33 31 33 32 32 30 31 31 33 32 32 33 34 35
16 18 18 19 22 24 23 24 26 26 26 26 25 25 26 27 25 25 26 29 31 33 30 29 30 29 29 28 26 27 27 25 27 29 28 27 31 33
8 9 15 20 21 21 22 23 26 27 26 25 25 26 25 23 22 21 22 23 26 28 26 29 30 28 26 26 26 24 23 24 23 25 27 30 30 31
6 6 6 6 14 20 22 22 23 24 24 25 26 24 22 21 21 21 22 24 24 23 24 25 25 23 23 23 24 23 21 20 18 21 26 29 29 29
6 9 8 7 9 12 17 20 20 21 22 23 22 21 21 22 21 20 17 18 16 17 17 18 19 20 21 20 20 20 18 12 10 15 18 21 22 24
8 11 8 8 10 13 14 12 11 15 19 21 21 21 21 21 20 20 19 18 17 18 17 17 16 17 17 17 16 15 13 13 12 8 11 14 18 21
4 5 8 10 10 13 12 8 8 11 15 17 18 20 20 20 21 20 19 19 20 19 16 15 15 14 13 12 13 12 11 10 10 12 15 18 19 20
5 6 5 9 8 9 7 6 9 15 16 15 16 17 18 18 18 18 18 19 20 19 16 15 14 12 13 12 10 10 11 11 13 15 15 16 17 17
5 8 9 9 9 11 8 9 10 11 12 13 14 15 16 16 17 18 18 18 17 16 14 14 13 12 11 8 8 8 10 11 11 13 14 16 18 21
5 7 8 11 10 11 9 10 11 11 9 9 11 11 12 12 13 13 12 11 12 12 13 13 12 11 9 9 8 8 9 10 12 14 16 18 20 22
5 7 8 9 9 10 9 11 15 13 10 9 10 9 9 9 9 9 9 9 10 10 12 11 10 9 8 6 6 8 9 11 13 15 17 18 19 21
3 5 6 8 8 8 8 9 10 10 11 9 8 8 8 7 8 8 9 10 10 11 11 11 9 8 6 6 7 7 9 11 12 13 12 15 17 20
Wind_Direction
231 231 231 231 232 227 235 231 224 227 248 234 234 231 235 236 233 234 238 241 245 247 249 250 249 252 260 263 270 272 273 277 287 285 285 284 286 286
227 231 232 236 236 239 237 238 242 234 227 232 230 234 231 229 240 243 245 248 250 252 253 253 252 252 255 260 260 267 269 273 277 283 283 284 285 287
217 230 233 231 238 240 239 237 235 234 228 234 230 234 233 236 233 235 241 244 246 249 254 256 256 255 254 254 259 263 266 271 274 275 278 280 282 284
215 222 222 226 229 237 237 234 236 231 231 242 234 237 242 240 241 246 245 247 247 250 250 255 260 262 261 259 255 255 259 264 268 272 273 276 277 279
216 216 219 220 222 224 229 229 225 227 237 233 236 241 242 243 245 249 250 256 255 253 254 257 258 263 265 265 258 257 258 261 263 265 269 272 273 274
214 212 211 212 218 222 219 223 224 225 228 234 237 240 242 241 248 250 252 252 261 260 266 262 262 262 262 264 267 264 260 263 264 263 262 264 268 270
202 210 212 213 214 216 219 218 222 224 227 231 234 237 242 247 253 260 262 263 265 263 266 265 266 263 268 262 264 266 266 265 269 265 262 260 263 265
201 205 203 200 203 209 217 222 225 228 231 233 239 245 247 251 261 262 268 273 273 276 274 272 269 277 276 264 268 265 269 270 270 267 262 259 260 263
195 199 202 203 208 214 224 227 230 230 236 239 246 250 253 259 273 275 275 275 274 277 281 281 275 275 276 274 266 270 268 271 266 266 261 258 256 258
197 201 200 204 208 213 213 217 226 233 233 239 247 252 262 269 270 275 276 274 268 271 277 274 280 279 278 275 273 276 272 272 268 269 265 253 257 259
193 199 205 212 212 215 220 227 234 240 242 247 252 256 256 258 261 263 263 269 269 271 271 276 275 277 278 276 274 275 272 274 272 270 267 255 258 256
187 203 208 214 217 222 228 232 242 250 251 249 247 250 253 258 260 260 259 261 266 272 272 268 277 277 278 279 277 274 270 273 266 269 264 254 257 248
204 214 218 223 227 233 240 244 245 249 253 251 253 259 260 264 263 258 258 260 262 266 272 275 278 277 272 270 274 280 276 270 268 257 250 243 243 249
191 213 225 226 230 237 243 245 246 247 248 250 255 258 260 264 266 259 258 265 264 262 266 271 270 271 273 277 280 280 280 276 268 257 244 238 242 247
199 204 233 255 236 230 237 242 245 247 249 251 253 260 263 262 258 255 262 269 263 264 267 267 270 272 270 273 277 282 281 277 268 254 246 243 248 256
217 232 232 243 260 264 247 242 245 247 248 253 258 259 256 254 256 253 258 266 266 270 271 269 267 266 267 269 272 274 273 260 262 245 241 243 245 252
234 235 238 248 255 254 245 231 240 253 254 251 253 253 248 248 248 246 245 255 262 267 268 268 265 264 264 263 264 264 262 252 246 236 244 253 257 263
263 260 250 263 255 251 238 239 267 267 265 251 248 248 247 247 248 248 249 253 258 259 260 260 259 257 254 253 251 252 243 249 263 266 267 267 271 270
268 261 253 268 254 242 244 274 274 260 257 249 247 246 244 245 246 250 254 256 255 252 248 245 244 242 238 234 241 246 253 259 264 267 268 270 275 279
252 245 241 257 260 244 237 263 272 265 256 251 248 249 249 251 254 256 255 252 247 242 236 228 223 224 221 236 250 259 260 261 266 270 277 286 292 293
252 249 253 250 260 253 244 257 272 269 258 253 251 252 252 250 248 246 240 233 229 224 218 209 205 213 224 238 248 259 263 268 277 286 294 299 303 301
242 253 254 258 262 263 255 258 260 256 252 249 250 250 247 242 235 225 213 208 201 200 195 198 203 212 223 231 249 263 274 285 293 299 308 312 312 306
211 239 252 267 264 264 262 254 248 253 253 240 232 231 228 220 209 192 182 183 188 190 192 196 201 211 217 235 258 277 285 289 291 293 301 304 304 307
Height
1460 1466 1471 1477 1481 1487 1491 1495 1500 1504 1509 1512 1516 1518 1520 1523 1525 1528 1530 1533 1535 1538 1540 1542 1544 1546 1547 1548 1548 1549 1549 1550 1550 1550 1550 1550 1549 1549
1452 1458 1464 1470 1474 1479 1483 1489 1493 1498 1502 1507 1509 1512 1514 1517 1520 1522 1525 1528 1530 1532 1533 1535 1538 1539 1541 1542 1543 1543 1543 1543 1545 1545 1544 1545 1544 1544
1443 1449 1455 1460 1466 1472 1476 1481 1486 1491 1494 1502 1503 1507 1509 1512 1513 1516 1519 1521 1523 1525 1527 1528 1529 1531 1533 1534 1535 1536 1537 1536 1537 1538 1539 1539 1539 1539
1434 1441 1447 1452 1458 1464 1469 1472 1479 1483 1489 1494 1495 1499 1502 1505 1507 1509 1512 1515 1517 1519 1520 1521 1522 1523 1525 1526 1527 1528 1529 1529 1529 1531 1532 1533 1532 1532
1427 1433 1439 1445 1451 1457 1463 1466 1472 1478 1482 1484 1489 1492 1495 1499 1500 1502 1505 1507 1509 1511 1512 1514 1515 1516 1516 1517 1518 1519 1520 1521 1522 1523 1524 1525 1525 1525
1420 1427 1432 1437 1444 1449 1455 1460 1466 1471 1475 1480 1483 1487 1490 1493 1494 1495 1496 1499 1501 1503 1505 1505 1506 1507 1507 1508 1509 1510 1510 1511 1512 1512 1514 1515 1516 1517
1414 1421 1427 1432 1438 1444 1449 1454 1460 1464 1467 1471 1476 1480 1483 1485 1487 1488 1489 1492 1492 1495 1495 1496 1496 1497 1499 1499 1499 1500 1501 1502 1502 1503 1504 1506 1507 1507
1407 1415 1421 1427 1433 1438 1443 1448 1454 1457 1460 1464 1468 1470 1474 1478 1481 1482 1482 1483 1482 1486 1485 1486 1488 1487 1489 1489 1491 1491 1492 1492 1492 1493 1494 1495 1497 1498
1402 1409 1415 1421 1427 1433 1438 1442 1446 1451 1455 1458 1461 1463 1467 1471 1474 1475 1474 1474 1474 1476 1478 1475 1479 1476 1479 1480 1481 1481 1481 1482 1482 1482 1484 1485 1486 1487
1398 1403 1410 1416 1422 1428 1432 1436 1439 1444 1448 1451 1454 1458 1459 1462 1465 1467 1467 1466 1466 1467 1469 1465 1468 1467 1469 1469 1471 1471 1471 1471 1471 1472 1473 1475 1477 1478
1392 1399 1405 1412 1416 1421 1425 1430 1433 1436 1441 1445 1448 1451 1454 1455 1457 1459 1458 1459 1457 1457 1461 1458 1458 1458 1459 1458 1460 1460 1460 1460 1461 1462 1462 1464 1467 1469
1387 1395 1400 1405 1410 1415 1418 1422 1425 1430 1435 1438 1440 1443 1446 1447 1448 1449 1450 1449 1449 1448 1453 1452 1451 1451 1449 1446 1449 1450 1450 1451 1451 1452 1453 1456 1458 1459
1385 1391 1397 1400 1404 1408 1409 1414 1418 1425 1428 1430 1433 1435 1437 1439 1440 1440 1442 1442 1441 1441 1444 1444 1443 1443 1442 1440 1441 1443 1443 1442 1442 1443 1446 1448 1450 1452
1382 1387 1390 1393 1397 1400 1405 1410 1414 1419 1420 1422 1425 1427 1429 1430 1431 1432 1435 1435 1434 1434 1436 1437 1435 1435 1436 1435 1435 1435 1435 1435 1436 1436 1438 1441 1444 1445
1380 1384 1388 1390 1393 1397 1400 1404 1408 1411 1414 1415 1417 1420 1422 1423 1423 1425 1428 1428 1427 1428 1428 1428 1429 1429 1430 1429 1428 1429 1430 1430 1430 1431 1433 1436 1439 1440
1377 1382 1385 1387 1391 1393 1396 1399 1401 1404 1406 1408 1410 1413 1414 1415 1417 1419 1421 1421 1421 1421 1421 1422 1422 1423 1424 1424 1424 1424 1425 1426 1426 1427 1429 1431 1433 1435
1376 1380 1381 1384 1388 1391 1393 1394 1396 1397 1399 1401 1403 1406 1407 1409 1410 1413 1414 1414 1415 1416 1416 1416 1417 1418 1419 1419 1420 1421 1422 1423 1424 1424 1426 1428 1429 1429
1374 1376 1381 1383 1383 1388 1389 1388 1390 1392 1394 1395 1397 1399 1401 1403 1405 1406 1407 1408 1409 1410 1410 1412 1413 1414 1415 1416 1418 1418 1419 1421 1421 1422 1422 1422 1422 1423
1372 1377 1377 1380 1380 1384 1385 1384 1386 1388 1389 1390 1392 1394 1396 1397 1398 1399 1401 1402 1403 1404 1405 1407 1408 1410 1412 1413 1415 1416 1417 1418 1418 1418 1418 1417 1417 1418
1371 1375 1375 1377 1379 1380 1381 1381 1383 1383 1384 1385 1387 1389 1390 1391 1392 1393 1394 1396 1397 1399 1401 1403 1404 1407 1410 1412 1413 1415 1415 1415 1415 1414 1414 1413 1412 1411
1370 1372 1373 1374 1375 1376 1376 1378 1380 1381 1380 1381 1383 1384 1385 1386 1387 1388 1390 1391 1393 1395 1398 1400 1402 1405 1407 1409 1410 1412 1413 1413 1411 1411 1409 1409 1407 1404
1369 1370 1370 1372 1372 1374 1374 1375 1379 1378 1377 1378 1379 1380 1382 1383 1384 1385 1386 1388 1390 1393 1396 1398 1401 1403 1405 1406 1408 1410 1410 1409 1408 1407 1405 1405 1403 1399
1369 1370 1370 1370 1372 1371 1372 1373 1375 1375 1374 1374 1376 1377 1378 1380 1382 1383 1384 1387 1390 1392 1395 1397 1399 1401 1402 1404 1406 1407 1407 1406 1405 1405 1404 1401 1399 1395